Regional Weather Roundup
Issued by NWS

Home | Current Version | Previous Version | Text Only | Print | Product List | Glossary On
Versions: 1 2 3 4 5 6 7 8 9 10 11 12 13 14 15 16 17 18 19 20 21 22 23 24 25 26 27 28 29 30 31 32 33 34 35 36 37 38 39 40 41 42 43 44 45 46 47 48 49 50
000
ASUS44 KLIX 262111
RWRLA
LOUISIANA WEATHER ROUNDUP
NATIONAL WEATHER SERVICE NEW ORLEANS LA
400 PM CDT SUN APR 26 2015

NOTE: "FAIR" INDICATES FEW OR NO CLOUDS BELOW 12,000 FEET WITH NO
      SIGNIFICANT WEATHER AND/OR OBSTRUCTIONS TO VISIBILITY.
      SKY/WX - SKY CONDITION AND SIGNIFICANT WEATHER.
      TMP - AIR TEMPERATURE.    DP   - DEWPOINT TEMPERATURE.
      RH  - RELATIVE HUMIDITY.  PRES - PRESSURE.
      HX  - HEAT INDEX.         WCI  - WIND CHILL INDEX.

*  THESE STATIONS ARE NOT NWS OR FAA STATIONS AND ARE NOT UNDER
   NWS QUALITY CONTROL.

LAZ040-048-061>063-065-066-069-262200-
SOUTHEAST LOUISIANA

CITY           SKY/WX    TMP DP  RH WIND       PRES   REMARKS
N.O. AUDUBON     N/A     90  76  63 MISG        N/A  HX 101
N.O. INTL ARPT PTSUNNY   83  71  67 VRB5      29.73F
N.O. LAKEFRONT CLOUDY    82  72  71 N8        29.74F
SLIDELL        CLOUDY    82  69  64 SW3       29.73F
BATON ROUGE    CLOUDY    81  68  64 NE6       29.72F
BOOTHVILLE     CLOUDY    77  75  93 SE13      29.74F FOG
BELLE CHASSE   PTSUNNY   85  66  53 NW3       29.72F
BOGALUSA*        N/A     87  60  39 CALM      29.75F
GALLIANO*      MOCLDY    84  73  70 S7        29.74R
NEW ROADS*     FAIR      79  70  75 N6        29.74S
GONZALES*      FAIR      83  69  61 CALM      29.71
HAMMOND*       PTSUNNY   84  68  58 CALM      29.74F
HOUMA*           N/A     86  73  66 SE6       29.72F
PORT FOURCHON* PTCLDY    77  75  94 SE13G20   29.73F FOG

$$

LAZ041-044-053-054-262200-
SOUTHWEST LOUISIANA

CITY           SKY/WX    TMP DP  RH WIND       PRES   REMARKS
LAKE CHARLES   CLOUDY    80  72  76 E7        29.70F
LAFAYETTE      PTSUNNY   85  70  60 CALM      29.70F
PATTERSON      CLOUDY    82  72  69 CALM      29.73F
SALT POINT       N/A     80  73  79 CALM      29.70F
NEW IBERIA     PTSUNNY   87  70  56 SE13      29.69F
CHENAULT AIRPK NOT AVBL

$$

LAZ027-028-262200-
CENTRAL LOUISIANA

CITY           SKY/WX    TMP DP  RH WIND       PRES   REMARKS
FORT POLK      CLOUDY    80  69  70 E6        29.69F
ALEXANDRIA INT CLOUDY    81  71  71 SE9       29.69F
ALEXANDRIA     CLOUDY    82  69  64 SE6       29.71F

$$

LAZ001-002-262200-
NORTHWEST LOUISIANA

CITY           SKY/WX    TMP DP  RH WIND       PRES   REMARKS
SHREVEPORT     PTSUNNY   89  56  32 S7        29.68F
BARKSDALE AFB  PTSUNNY   89  56  32 SW6       29.68F
DTN SHREVEPORT PTSUNNY   87  57  35 VRB7      29.68F

$$

LAZ014-016-262200-
NORTHEAST LOUISIANA

CITY           SKY/WX    TMP DP  RH WIND       PRES   REMARKS
MONROE         PTSUNNY   88  63  43 NE3       29.72F
TALLULAH       PTSUNNY   84  66  54 NE6       29.72F

$$



USA.gov is the U.S. government's official web portal to all federal, state and local government web resources and services.